This is the latest recevied weather packets stored in our database for station/object KQ4UPF. If no packets are shown the sender has not sent any weather packets the latest 10 day(s).
| Time | Temp. | Humidity | Pressure | Rain* | Wind** | Luminosity | Snow |
|---|---|---|---|---|---|---|---|
| 1777746566 | 19.44° C | 37% | 1016.8 hPa | 0 mm | - | 969 W/m² | - |
| 1777746262 | 19.44° C | 36% | 1016.7 hPa | 0 mm | - | 973 W/m² | - |
| 1777745958 | 18.89° C | 46% | 1016.9 hPa | 0 mm | - | 976 W/m² | - |
| 1777745657 | 18.89° C | 39% | 1017 hPa | 0 mm | - | 981 W/m² | - |
| 1777745355 | 18.89° C | 37% | 1016.9 hPa | 0 mm | - | 982 W/m² | - |
| 1777745052 | 18.33° C | 36% | 1016.9 hPa | 0 mm | - | 987 W/m² | - |
| 1777744748 | 18.33° C | 34% | 1017 hPa | 0 mm | - | 1030 W/m² | - |
| 1777744442 | 18.33° C | 33% | 1017.1 hPa | 0 mm | - | 888 W/m² | - |
| 1777744139 | 18.89° C | 38% | 1017 hPa | 0 mm | - | 1009 W/m² | - |
| 1777743836 | 18.89° C | 36% | 1016.9 hPa | 0 mm | - | 823 W/m² | - |
| 1777743532 | 18.33° C | 38% | 1017 hPa | 0 mm | - | 853 W/m² | - |
| 1777743230 | 18.89° C | 36% | 1017.1 hPa | 0 mm | - | 1069 W/m² | - |
| 1777742928 | 19.44° C | 38% | 1017 hPa | 0 mm | - | 1038 W/m² | - |
| 1777742624 | 18.33° C | 40% | 1017.1 hPa | 0 mm | - | 1070 W/m² | - |
| 1777742320 | 18.33° C | 40% | 1017.2 hPa | 0 mm | - | 912 W/m² | - |
| 1777742017 | 18.33° C | 41% | 1017.1 hPa | 0 mm | - | 1056 W/m² | - |
| 1777741714 | 18.89° C | 41% | 1017.2 hPa | 0 mm | - | 866 W/m² | - |
| 1777741410 | 18.33° C | 39% | 1017.1 hPa | 0 mm | - | 1068 W/m² | - |
| 1777741106 | 18.33° C | 41% | 1017 hPa | 0 mm | - | 955 W/m² | - |
| 1777740804 | 18.33° C | 38% | 1017.4 hPa | 0 mm | - | 814 W/m² | - |
| 1777740501 | 17.78° C | 42% | 1017.3 hPa | 0 mm | - | 789 W/m² | - |
| 1777740198 | 17.78° C | 44% | 1017.4 hPa | 0 mm | - | 990 W/m² | - |
| 1777739894 | 17.22° C | 43% | 1017.2 hPa | 0 mm | - | 738 W/m² | - |
| 1777739590 | 17.22° C | 45% | 1017.3 hPa | 0 mm | - | 651 W/m² | - |
| 1777739288 | 17.22° C | 46% | 1017.5 hPa | 0 mm | - | 971 W/m² | - |
* Rain latest hour (hover to see other rain measurements)
** Current wind speed in m/s (hover to see current wind gust speed)